Location: Unspecified
(50.1700°N, 6.8600°E)
Time: 00:13:46
(UTC+00:00)

Cosmos 1726 - Visible Passes

Search period start: 26 April 2019 00:00
Search period end: 06 May 2019 00:00
Orbit: 484 x 501 km, 82.5° (Epoch: 25 April)

Date Brightness Start Highest point End Pass type
(mag) Time Alt. Az. Time Alt. Az. Time Alt. Az.
26 Apr 5.1 03:00:27 10° NNE 03:03:21 21° ENE 03:06:15 10° ESE visible
27 Apr 5.3 02:38:39 10° NNE 02:40:57 15° ENE 02:43:16 10° ESE visible
28 Apr 5.6 02:17:14 10° NE 02:18:31 11° ENE 02:19:49 10° E visible
29 Apr 2.4 03:28:17 10° N 03:32:03 74° E 03:35:47 10° SSE visible
30 Apr 3.1 03:06:05 10° N 03:09:46 50° ENE 03:13:25 10° SSE visible
01 May 3.9 02:43:57 10° N 02:47:27 35° ENE 02:50:55 10° SE visible
02 May 4.5 02:21:54 10° NNE 02:25:05 25° ENE 02:28:16 10° SE visible
03 May 5.0 01:59:58 10° NNE 02:02:42 19° ENE 02:05:26 10° ESE visible
04 May 5.2 01:38:14 10° NNE 01:40:18 14° ENE 01:42:19 10° E visible
04 May 2.2 03:12:13 10° NNW 03:15:55 59° W 03:19:37 10° S visible
05 May 5.5 01:17:21 10° NE 01:17:50 10° ENE 01:18:18 10° ENE visible
05 May 2.1 02:49:54 10° N 02:53:41 87° W 02:57:26 10° S visible
